Lid_Strength_Index
-2 -1 -1 -1 -1 -2 -2 -2 -2 -2 -2 -2 -1 -1 -1 0 4 5 4 3 -0 -1 -1 -1 -1 -1 -1 -1 -1 -1 -1 -1 -1
-1 -1 -1 -1 -1 -1 -1 -1 -1 -1 -2 -1 -2 -1 -1 3 4 5 4 6 1 -2 -1 -1 -1 -1 -1 -1 -1 -1 -1 -1 -1
-1 -1 -1 -1 -1 -1 -1 -1 -0 -1 -1 -1 -1 -1 1 3 4 3 2 0 -1 -1 -1 -1 -1 -1 -1 -1 -1 -1 -1 -1 -1
-0 -0 0 0 0 0 0 0 0 -0 -1 -1 -0 -1 -1 2 2 1 1 -1 -2 -2 -2 -1 -1 -1 -1 -1 -1 -1 -1 -1 -1
0 1 1 1 1 1 1 1 1 1 0 0 0 -0 -0 2 1 1 -0 -2 -2 -2 -2 -2 -2 -2 -1 -1 -1 -1 -1 -1 -1
5 2 2 2 2 2 1 2 2 3 3 2 1 1 2 1 0 0 -2 -2 -2 -2 -2 -2 -2 -2 -2 -2 -2 -2 -2 -1 -1
6 5 4 3 4 3 3 3 4 6 8 8 5 3 2 2 1 -0 -2 -2 -2 -2 -2 -2 -2 -2 -2 -2 -2 -2 -2 -2 -2
9 9 9 9 7 9 8 9 9 9 9 8 7 3 3 3 2 0 -1 -1 -2 -2 -2 -2 -2 -2 -2 -2 -2 -2 -2 -2 -2
10 10 10 9 9 9 9 9 9 9 8 8 6 3 3 3 3 1 -1 -1 -2 -2 -2 -2 -2 -2 -2 -2 -2 -2 -2 -2 -2
10 10 10 9 9 10 10 9 9 9 8 5 5 4 4 4 4 4 0 -0 -0 -1 -1 -2 -2 -2 -2 -2 -2 -2 -2 -2 -2
10 9 10 10 9 10 10 10 10 9 9 6 4 4 4 4 5 5 4 1 1 1 0 -0 -1 -1 -1 -1 -1 -1 -1 -1 -2
9 9 11 10 10 10 10 10 9 9 9 7 5 5 6 6 6 6 7 5 3 3 2 1 1 1 0 0 1 0 0 -0 -1
9 9 10 9 9 9 10 10 10 9 10 9 6 6 6 7 8 8 8 7 7 5 4 3 3 3 2 1 1 1 1 1 0
9 9 9 9 9 10 10 11 10 10 9 9 8 7 7 7 7 8 8 8 9 10 6 5 5 4 3 3 2 2 2 2 1
9 10 9 9 10 10 10 11 10 10 10 8 8 8 7 7 8 8 8 9 9 10 11 11 10 6 5 4 3 2 2 2 2
9 10 10 10 10 10 10 11 10 11 10 10 10 10 8 8 8 7 8 9 9 10 11 11 12 11 6 5 4 3 3 2 2
8 9 9 9 9 10 12 11 11 11 10 11 12 13 12 9 9 8 7 8 9 10 11 12 12 12 11 8 6 5 3 3 2
7 8 8 8 9 10 10 10 11 12 11 10 11 13 14 13 11 9 9 9 9 10 10 11 11 12 12 10 9 6 5 4 3
6 6 7 7 8 9 10 10 11 11 12 11 9 11 11 13 13 11 10 10 9 9 10 11 12 12 12 10 8 7 6 5 4
7 7 7 7 8 9 9 10 10 11 11 12 12 12 12 12 13 14 13 11 11 10 10 11 12 13 13 12 10 7 6 5 5